Location: Le Rocchette
(44.3500°N, 7.8333°E)
Time: 07:42:10
(UTC+00:00)

Cosmos 1892 - Pass Details

Date: 17 November 2019
Orbit: 504 x 525 km, 82.5° (Epoch: 12 December)

Event Time Altitude Azimuth Distance (km) Brightness Sun altitude
Rises 05:31:48 0° 227° (SW) 2,611 6.0 -9.9°
Reaches altitude 10° 05:34:35 10° 250° (WSW) 1,727 4.9 -9.5°
Maximum altitude 05:37:00 16° 290° (WNW) 1,385 4.2 -9.1°
Drops below altitude 10° 05:39:25 10° 330° (NNW) 1,730 4.9 -8.6°
Sets 05:42:13 0° 352° (N) 2,619 6.0 -8.2°
